Location: Unspecified
(40.7945°N, 111.1337°W)
Time: 06:46:54
(UTC-06:00)

Vanguard 1 - Pass Details

Date: 27 June 2019
Orbit: 655 x 3829 km, 34.2° (Epoch: 16 August)

Event Time Altitude Azimuth Distance (km) Brightness Sun altitude
Rises 05:42:06 0° 267° (W) 7,477 14.0 -2.9°
Reaches altitude 10° 05:47:45 10° 265° (W) 6,082 13.6 -2.0°
Maximum altitude 06:04:29 63° 191° (S) 2,213 11.7 0.7°
Drops below altitude 10° 06:13:23 10° 112° (ESE) 3,420 13.5 2.1°
Sets 06:15:41 0° 109° (ESE) 4,115 14.0 2.5°
